Frankfurt, Germany

01:57 PM CEST am 23. April 2017 (GMT +0200)
Frankfurt / Main

Wetter Verlauf für EDDF - Januar, 2017

Change the Weather History Date:

Donnerstag, Januar 12, 2017

  Actual Average Record
Temperature  
mittlereTemperatur 40 °F -  
Max. Temperatur 42 °F 40 °F 51 °F (2007)
Min.Temperatur 37 °F 30 °F 5 °F (2009)
Degree Days  
Heizgradtage 26    
Moisture  
Taupunkt 34 °F    
Average Humidity 80    
Maximum Humidity 100    
Minimum Humidity 70    
Niederschlag  
Niederschlag 0.00 inch - - ()
Luftdruck in Meereshöhe  
Luftdruck in Meereshöhe 29.76 inch    
Wind  
Windgeschwindigkeit 11 mph ()    
Max. Windgeschwindigkeit 16 mph    
Max Gust Speed -    
Sichtweite 6.2 Meilen    
Ereignisse Regen    
Averages and records for this station are not official NWS values.
T = Trace of Precipitation, MM = Missing Value Source: Averaged Metar Reports

Daily Weather History Graph

Daily Weather History Graph

Search for Another Location

Airport or City:

Trip Planner

Search our weather history database for the weather conditions in past years. The results will help you decide how hot, cold, wet, or windy it might be!

Date:

Astronomie

Jan. 12, 2017 Aufgang Untergang
Genaue Zeit 08:20 CET 16:47 CET
Bürgerliche Dämmerung 07:43 CET 17:25 CET
Nautische Dämmerung 07:02 CET 18:05 CET
Astronomische Dämmerung 06:23 CET 18:44 CET
Mond 17:12 CET (1/12) 07:53 CET (1/12)
Länge des sichtbaren Lichts 9h 42m
Tageslänge
8h 27m
Vollmond, 100% of the Moon is Illuminated
Jan 12
Vollmond
Jan 12
Vollmond
Jan 19
Letztes Viertel
Jan 28
Neu
Feb 4
Erstes Viertel

Hourly Weather History & Observations

Zeit (CET) Temp. Windchill Taupunkt Feuchtigkeit Druck Sichtweite Wind Dir Windgeschwindigkeit Böengeschwindigkeit Precip Ereignisse Wetterzustand
12:20 AM 39.2 °F 32.5 °F 33.8 °F 81% 29.86 inch 6.2 mi Südwest 10.4 mph - N/A   Wolkig
12:50 AM 39.2 °F 33.6 °F 33.8 °F 81% 29.86 inch 6.2 mi Südwest 8.1 mph - N/A   Wolkig
1:20 AM 39.2 °F 32.0 °F 33.8 °F 81% 29.89 inch 6.2 mi Süd-Südwest 11.5 mph - N/A   Wolkig
1:50 AM 39.2 °F 32.5 °F 32.0 °F 75% 29.89 inch 6.2 mi Süd-Südwest 10.4 mph - N/A   Teils Wolkig
2:20 AM 39.2 °F 31.6 °F 32.0 °F 75% 29.89 inch 6.2 mi Südwest 12.7 mph - N/A   Wolkig
2:50 AM 39.2 °F 31.6 °F 32.0 °F 75% 29.92 inch 6.2 mi Südwest 12.7 mph - N/A   Wolkig
3:20 AM 39.2 °F 30.8 °F 32.0 °F 75% 29.92 inch 6.2 mi Südwest 15.0 mph - N/A   Wolkig
3:50 AM 39.2 °F 31.2 °F 32.0 °F 75% 29.92 inch 6.2 mi Südwest 13.8 mph - N/A   Teils Wolkig
4:20 AM 39.2 °F 30.8 °F 30.2 °F 70% 29.92 inch 6.2 mi Südwest 15.0 mph - N/A   Wolkig
4:50 AM 39.2 °F 32.0 °F 30.2 °F 70% 29.92 inch 6.2 mi Südwest 11.5 mph - N/A   Wolkig
5:20 AM 39.2 °F 33.0 °F 30.2 °F 70% 29.92 inch 6.2 mi Südwest 9.2 mph - N/A   Wolkig
5:50 AM 37.4 °F 31.4 °F 30.2 °F 75% 29.92 inch 6.2 mi Süd 8.1 mph - N/A   Wolkig
6:20 AM 37.4 °F 32.1 °F 30.2 °F 75% 29.92 inch 6.2 mi Süd 6.9 mph - N/A   Wolkig
6:50 AM 37.4 °F 30.8 °F 30.2 °F 75% 29.92 inch 6.2 mi Süd-Südwest 9.2 mph - N/A   Wolkig
7:20 AM 37.4 °F 30.3 °F 30.2 °F 75% 29.92 inch 6.2 mi Süd-Südwest 10.4 mph - N/A   Wolkig
7:50 AM 39.2 °F 33.0 °F 30.2 °F 70% 29.92 inch 6.2 mi Süd-Südwest 9.2 mph - N/A   Wolkig
8:20 AM 39.2 °F 33.0 °F 32.0 °F 75% 29.92 inch 6.2 mi Süd-Südwest 9.2 mph - N/A   Wolkig
8:50 AM 39.2 °F 33.6 °F 32.0 °F 75% 29.92 inch 6.2 mi Süd-Südwest 8.1 mph - N/A   Teils Wolkig
9:20 AM 39.2 °F 31.6 °F 32.0 °F 75% 29.92 inch 6.2 mi Süd-Südwest 12.7 mph - N/A   Wolkig
9:50 AM 39.2 °F 30.8 °F 32.0 °F 75% 29.92 inch 6.2 mi Süd-Südwest 15.0 mph - N/A   Wolkig
10:20 AM 39.2 °F 31.6 °F 32.0 °F 75% 29.92 inch 6.2 mi Süd-Südwest 12.7 mph - N/A   Wolkig
10:50 AM 41.0 °F 32.8 °F 32.0 °F 70% 29.92 inch 6.2 mi Süd-Südwest 16.1 mph - N/A   Wolkig
11:20 AM 41.0 °F 33.9 °F 33.8 °F 76% 29.92 inch 6.2 mi Süd-Südwest 12.7 mph - N/A   Wolkig
11:50 AM 41.0 °F 33.9 °F 33.8 °F 76% 29.89 inch 6.2 mi Süd-Südwest 12.7 mph - N/A   Wolkig
12:20 PM 41.0 °F 33.5 °F 33.8 °F 76% 29.89 inch 6.2 mi Süd-Südwest 13.8 mph - N/A   Wolkig
12:50 PM 42.8 °F 35.8 °F 35.6 °F 76% 29.89 inch 6.2 mi Süd-Südwest 13.8 mph - N/A   Wolkig
1:20 PM 42.8 °F 35.4 °F 33.8 °F 70% 29.86 inch 6.2 mi Südwest 15.0 mph - N/A   Wolkig
1:50 PM 42.8 °F 36.6 °F 33.8 °F 70% 29.83 inch 6.2 mi Süd-Südwest 11.5 mph - N/A   Wolkig
2:20 PM 41.0 °F 33.1 °F 33.8 °F 76% 29.83 inch 6.2 mi Süd-Südwest 15.0 mph - N/A   Wolkig
2:50 PM 41.0 °F 33.1 °F 35.6 °F 81% 29.80 inch 6.2 mi Süd-Südwest 15.0 mph - N/A   Wolkig
3:20 PM 41.0 °F 34.3 °F 35.6 °F 81% 29.80 inch 6.2 mi Süd-Südwest 11.5 mph - N/A   Wolkig
3:50 PM 41.0 °F 34.3 °F 35.6 °F 81% 29.77 inch 6.2 mi Süd-Südwest 11.5 mph - N/A   Wolkig
4:20 PM 41.0 °F 34.7 °F 33.8 °F 76% 29.74 inch 6.2 mi Süd-Südwest 10.4 mph - N/A   Wolkig
4:50 PM 41.0 °F 35.2 °F 33.8 °F 76% 29.71 inch 6.2 mi Süd-Südwest 9.2 mph - N/A   Wolkig
5:20 PM 39.2 °F 33.0 °F 33.8 °F 81% 29.68 inch 6.2 mi Süd 9.2 mph - N/A   Wolkig
5:50 PM 39.2 °F 32.5 °F 33.8 °F 81% 29.65 inch 6.2 mi Süd 10.4 mph - N/A   Bedeckt
6:20 PM 41.0 °F 35.2 °F 33.8 °F 76% 29.65 inch 6.2 mi Süd 9.2 mph - N/A   Bedeckt
6:50 PM 39.2 °F 32.5 °F 35.6 °F 87% 29.59 inch 6.2 mi Süd 10.4 mph - N/A Regen Leichter Regen
7:20 PM 37.4 °F 30.3 °F 35.6 °F 93% 29.56 inch 6.2 mi Süd-Südost 10.4 mph - N/A Regen Leichter Regen
7:50 PM 37.4 °F 30.3 °F 35.6 °F 93% 29.53 inch 6.2 mi Süd-Südost 10.4 mph - N/A Regen Leichter Regen
8:20 PM 37.4 °F 29.8 °F 37.4 °F 100% 29.50 inch 6.2 mi Süd 11.5 mph - N/A Regen Leichter Regen
8:50 PM 39.2 °F 32.5 °F 37.4 °F 93% 29.47 inch 6.2 mi Süd-Südost 10.4 mph - N/A Regen Leichter Regen
9:20 PM 39.2 °F 32.0 °F 37.4 °F 93% 29.42 inch 5.0 mi Süd 11.5 mph - N/A Regen Leichter Regen
9:50 PM 39.2 °F 30.8 °F 37.4 °F 93% 29.36 inch 6.2 mi Süd 15.0 mph - N/A Regen Leichter Regen
10:20 PM 39.2 °F 32.0 °F 37.4 °F 93% 29.33 inch 6.2 mi Süd 11.5 mph - N/A Regen Leichter Regen
10:50 PM 41.0 °F 33.1 °F 39.2 °F 93% 29.30 inch 6.2 mi Süd 15.0 mph - N/A Regen Leichter Regen
11:20 PM 41.0 °F 32.8 °F 39.2 °F 93% 29.24 inch 6.2 mi Süd 16.1 mph - N/A Regen Leichter Regen
11:50 PM 41.0 °F 32.8 °F 39.2 °F 93% 29.21 inch 6.2 mi Süd 16.1 mph - N/A Regen Leichter Regen